Tracking 19490 objects as of 23-Jan-2019
HD Live streaming from Space Station
objects crossing your sky now

COSMOS 2037

Track COSMOS 2037 now!
10-day predictions
COSMOS 2037 is classified as:


NORAD ID: 20196
Int'l Code: 1989-068A
Perigee: 1,492.0 km
Apogee: 1,530.5 km
Inclination: 73.6 °
Period: 116.1 minutes
Semi major axis: 7882 km
RCS: 9.7636 m2 (large)
Launch date: August 28, 1989
Source: Commonwealth of Independent States (former USSR) (CIS)
Launch site: PLESETSK MISSILE AND SPACE COMPLEX (PKMTR)
aabbcc
Your satellite tracking list
Your tracking list is empty




NASA's NSSDC Master Catalog

Two Line Element Set (TLE):
1 20196U 89068A   19022.94189491 -.00000012 +00000-0 +38456-4 0  9992
2 20196 073.5687 329.1140 0024444 086.9212 339.2376 12.40587092330829
Source of the keplerian elements: AFSPC